SWR2VF LSZH-ESGG

Flight info

Callsign SWR2VF
Flight time 1h 44m
Altitude 38000
Route DEGES Z1 ETAGO DCT HAREM/N0428F370 DCT LOHRE DCT BERXO DCT MAKEL N851 GESKA/N0436F380 Z706 NOVPO L997 RISMA
Aircraft A319/M-SDE3FGHIRWY/LB1

Departure

Time 2026-05-05 11:06
Airport Zürich Airport (LSZH)

Arrival

Time 2026-05-05 12:50
Airport Göteborg Landvetter Airport (ESGG)
Time Latitude Longitude Altitude Speed Heading
2026-05-05 10:22 47.45344 8.55862 1413 ft 0 kts
2026-05-05 10:22 47.45339 8.55862 1413 ft 0 kts
2026-05-05 10:22 47.45340 8.55861 1413 ft 0 kts
2026-05-05 10:22 47.45347 8.55862 1411 ft 0 kts
2026-05-05 10:23 47.45344 8.55862 1413 ft 0 kts
2026-05-05 10:24 47.45339 8.55861 1407 ft 0 kts
2026-05-05 10:24 47.45344 8.55862 1407 ft 0 kts
2026-05-05 10:45 47.45347 8.55815 1410 ft 0 kts
2026-05-05 10:46 47.45344 8.55862 1434 ft 0 kts
2026-05-05 10:54 47.45340 8.55861 1407 ft 3 kts
2026-05-05 10:55 47.45313 8.55857 1407 ft 4 kts
2026-05-05 10:55 47.45291 8.55854 1413 ft 4 kts
2026-05-05 10:55 47.45266 8.55858 1409 ft 4 kts 323°
2026-05-05 10:55 47.45254 8.55888 1408 ft 4 kts 277°
2026-05-05 10:56 47.45252 8.55911 1407 ft 0 kts 276°
2026-05-05 10:58 47.45252 8.55910 1407 ft 0 kts 276°
2026-05-05 10:58 47.45255 8.55866 1411 ft 12 kts 276°
2026-05-05 10:59 47.45267 8.55708 1407 ft 16 kts 277°
2026-05-05 10:59 47.45275 8.55603 1409 ft 15 kts 285°
2026-05-05 10:59 47.45355 8.55518 1410 ft 14 kts 338°
2026-05-05 10:59 47.45451 8.55460 1409 ft 15 kts 335°
2026-05-05 11:00 47.45586 8.55364 1401 ft 17 kts 334°
2026-05-05 11:00 47.45657 8.55345 1399 ft 15 kts 31°
2026-05-05 11:00 47.45666 8.55474 1402 ft 13 kts 96°
2026-05-05 11:00 47.45656 8.55621 1404 ft 14 kts 96°
2026-05-05 11:01 47.45646 8.55754 1409 ft 12 kts 96°
2026-05-05 11:01 47.45638 8.55870 1409 ft 15 kts 96°
2026-05-05 11:01 47.45620 8.56098 1411 ft 25 kts 97°
2026-05-05 11:01 47.45600 8.56344 1415 ft 23 kts 96°
2026-05-05 11:02 47.45579 8.56626 1418 ft 18 kts 96°
2026-05-05 11:02 47.45575 8.56747 1421 ft 17 kts 92°
2026-05-05 11:02 47.45565 8.56908 1420 ft 14 kts 95°
2026-05-05 11:02 47.45593 8.57013 1423 ft 9 kts 24°
2026-05-05 11:03 47.45631 8.57022 1425 ft 4 kts
2026-05-05 11:03 47.45655 8.57024 1425 ft 2 kts 354°
2026-05-05 11:03 47.45666 8.57009 1425 ft 2 kts 303°
2026-05-05 11:03 47.45665 8.57005 1425 ft 0 kts 279°
2026-05-05 11:05 47.45671 8.56935 1424 ft 29 kts 277°
2026-05-05 11:05 47.45724 8.56212 1413 ft 107 kts 276°
2026-05-05 11:05 47.45818 8.54810 1454 ft 159 kts 276°
2026-05-05 11:06 47.45946 8.53185 2150 ft 160 kts 276°
2026-05-05 11:06 47.46068 8.51551 2868 ft 166 kts 276°
2026-05-05 11:06 47.46192 8.49743 3285 ft 188 kts 275°
2026-05-05 11:06 47.46118 8.47750 3615 ft 211 kts 250°
2026-05-05 11:07 47.45393 8.45775 4220 ft 221 kts 240°
2026-05-05 11:07 47.44628 8.43791 4958 ft 224 kts 240°
2026-05-05 11:07 47.43866 8.41745 5773 ft 228 kts 240°
2026-05-05 11:07 47.43116 8.39674 6626 ft 230 kts 240°
2026-05-05 11:08 47.42206 8.37739 7423 ft 231 kts 217°
2026-05-05 11:08 47.40739 8.36879 8241 ft 230 kts 183°
2026-05-05 11:08 47.39188 8.37359 9126 ft 232 kts 152°
2026-05-05 11:08 47.38034 8.39018 9965 ft 239 kts 121°
2026-05-05 11:09 47.37700 8.41448 10738 ft 252 kts 85°
2026-05-05 11:09 47.38421 8.43835 11527 ft 264 kts 52°
2026-05-05 11:09 47.39658 8.45864 12349 ft 269 kts 49°
2026-05-05 11:09 47.40933 8.47925 13166 ft 274 kts 49°
2026-05-05 11:10 47.42235 8.50028 13944 ft 280 kts 49°
2026-05-05 11:10 47.43610 8.52095 14666 ft 285 kts 40°
2026-05-05 11:10 47.45138 8.53988 15417 ft 288 kts 47°
2026-05-05 11:10 47.46216 8.56492 15914 ft 298 kts 75°
2026-05-05 11:11 47.46601 8.59586 16162 ft 317 kts 90°
2026-05-05 11:11 47.46619 8.62953 16382 ft 339 kts 95°
2026-05-05 11:11 47.46514 8.66528 16707 ft 356 kts 96°
2026-05-05 11:11 47.46428 8.70218 17355 ft 363 kts 95°
2026-05-05 11:12 47.46416 8.73971 18123 ft 367 kts 92°
2026-05-05 11:12 47.46485 8.77768 18825 ft 371 kts 91°
2026-05-05 11:12 47.46551 8.81595 19569 ft 371 kts 96°
2026-05-05 11:12 47.46256 8.85368 20321 ft 369 kts 105°
2026-05-05 11:13 47.45751 8.89091 21015 ft 371 kts 105°
2026-05-05 11:13 47.45216 8.92838 21660 ft 375 kts 106°
2026-05-05 11:13 47.44666 8.96616 22309 ft 378 kts 106°
2026-05-05 11:13 47.44109 9.00427 22974 ft 381 kts 106°
2026-05-05 11:14 47.43552 9.04264 23592 ft 384 kts 106°
2026-05-05 11:14 47.42995 9.08129 24152 ft 386 kts 106°
2026-05-05 11:14 47.42440 9.11968 24707 ft 388 kts 106°
2026-05-05 11:14 47.42063 9.15988 25276 ft 396 kts 96°
2026-05-05 11:15 47.42219 9.20040 25788 ft 405 kts 85°
2026-05-05 11:15 47.42949 9.24094 26295 ft 414 kts 72°
2026-05-05 11:15 47.44249 9.27943 26785 ft 422 kts 63°
2026-05-05 11:15 47.45726 9.31712 27264 ft 426 kts 63°
2026-05-05 11:16 47.47394 9.35352 27743 ft 433 kts 54°
2026-05-05 11:16 47.49506 9.38578 28211 ft 440 kts 43°
2026-05-05 11:16 47.52041 9.41256 28660 ft 446 kts 32°
2026-05-05 11:16 47.54833 9.43195 29115 ft 452 kts 21°
2026-05-05 11:17 47.57854 9.44510 29575 ft 456 kts 13°
2026-05-05 11:17 47.60998 9.45208 29993 ft 460 kts
2026-05-05 11:17 47.64207 9.45421 30351 ft 463 kts
2026-05-05 11:17 47.67437 9.45603 30706 ft 466 kts
2026-05-05 11:18 47.70692 9.45784 31064 ft 469 kts
2026-05-05 11:18 47.73966 9.45962 31418 ft 473 kts
2026-05-05 11:18 47.77265 9.46134 31771 ft 475 kts
2026-05-05 11:18 47.80583 9.46301 32116 ft 478 kts
2026-05-05 11:19 47.83920 9.46396 32452 ft 481 kts 359°
2026-05-05 11:19 47.87265 9.46403 32948 ft 480 kts 358°
2026-05-05 11:19 47.90598 9.46357 33453 ft 479 kts 358°
2026-05-05 11:19 47.93931 9.46295 33927 ft 478 kts 358°
2026-05-05 11:20 47.97251 9.46242 34351 ft 478 kts 358°
2026-05-05 11:20 48.00574 9.46206 34780 ft 476 kts 358°
2026-05-05 11:20 48.03884 9.46191 35221 ft 475 kts 358°
2026-05-05 11:20 48.07182 9.46191 35669 ft 472 kts 358°
2026-05-05 11:21 48.10463 9.46195 36101 ft 470 kts 358°
2026-05-05 11:21 48.13731 9.46193 36512 ft 469 kts 358°
2026-05-05 11:21 48.16984 9.46188 36910 ft 467 kts 358°
2026-05-05 11:21 48.20222 9.46188 37308 ft 465 kts 358°
2026-05-05 11:22 48.23458 9.46194 37692 ft 464 kts 358°
2026-05-05 11:22 48.26684 9.46201 37875 ft 462 kts 358°
2026-05-05 11:22 48.29877 9.46204 37857 ft 457 kts 358°
2026-05-05 11:23 48.36216 9.46205 37857 ft 454 kts 358°
2026-05-05 11:23 48.42537 9.46213 37858 ft 454 kts 358°
2026-05-05 11:24 48.48858 9.46217 37851 ft 454 kts 358°
2026-05-05 11:24 48.55178 9.46220 37850 ft 454 kts 358°
2026-05-05 11:25 48.61458 9.46165 37852 ft 454 kts 357°
2026-05-05 11:25 48.67785 9.46066 37852 ft 454 kts 357°
2026-05-05 11:26 48.74106 9.45968 37855 ft 454 kts 357°
2026-05-05 11:26 48.80420 9.45704 37848 ft 454 kts 356°
2026-05-05 11:27 48.86724 9.45326 37849 ft 454 kts 355°
2026-05-05 11:27 48.93037 9.44963 37860 ft 454 kts 356°
2026-05-05 11:28 48.99349 9.44645 37852 ft 454 kts 356°
2026-05-05 11:28 49.05665 9.44336 37850 ft 454 kts 356°
2026-05-05 11:29 49.11983 9.44027 37852 ft 454 kts 356°
2026-05-05 11:29 49.18297 9.43705 37850 ft 454 kts 355°
2026-05-05 11:30 49.24618 9.43377 37845 ft 455 kts 355°
2026-05-05 11:30 49.30943 9.43050 37845 ft 455 kts 355°
2026-05-05 11:31 49.37268 9.42714 37853 ft 455 kts 355°
2026-05-05 11:31 49.43558 9.42388 37852 ft 455 kts 355°
2026-05-05 11:32 49.49887 9.42073 37864 ft 455 kts 355°
2026-05-05 11:32 49.56216 9.41748 37854 ft 455 kts 355°
2026-05-05 11:33 49.62552 9.41574 37857 ft 457 kts
2026-05-05 11:33 49.68891 9.42561 37854 ft 458 kts
2026-05-05 11:34 49.75230 9.43575 37851 ft 458 kts
2026-05-05 11:34 49.81567 9.44585 37855 ft 458 kts
2026-05-05 11:35 49.87907 9.45595 37846 ft 458 kts
2026-05-05 11:35 49.94251 9.46617 37841 ft 458 kts
2026-05-05 11:36 50.00553 9.47632 37840 ft 459 kts
2026-05-05 11:36 50.06902 9.48725 37849 ft 460 kts
2026-05-05 11:37 50.13172 9.50797 37847 ft 461 kts 10°
2026-05-05 11:37 50.19451 9.52901 37846 ft 461 kts 10°
2026-05-05 11:38 50.25728 9.55005 37852 ft 461 kts 10°
2026-05-05 11:38 50.32009 9.57113 37850 ft 462 kts
2026-05-05 11:39 50.38290 9.59226 37851 ft 462 kts
2026-05-05 11:39 50.44571 9.61356 37850 ft 462 kts
2026-05-05 11:40 50.50845 9.63484 37858 ft 462 kts
2026-05-05 11:40 50.57126 9.65620 37857 ft 462 kts
2026-05-05 11:41 50.63373 9.67752 37854 ft 462 kts
2026-05-05 11:41 50.69650 9.69893 37852 ft 462 kts
2026-05-05 11:42 50.75939 9.72044 37856 ft 463 kts
2026-05-05 11:42 50.82236 9.74213 37855 ft 463 kts
2026-05-05 11:43 50.88528 9.76392 37859 ft 463 kts
2026-05-05 11:43 50.94818 9.78573 37870 ft 462 kts
2026-05-05 11:44 51.01105 9.80747 37867 ft 462 kts
2026-05-05 11:44 51.07390 9.82931 37874 ft 462 kts
2026-05-05 11:45 51.13667 9.85112 37873 ft 462 kts
2026-05-05 11:45 51.18894 9.86937 37880 ft 462 kts
2026-05-05 11:46 51.25097 9.89615 37886 ft 463 kts 16°
2026-05-05 11:46 51.31173 9.92980 37881 ft 462 kts 16°
2026-05-05 11:47 51.37254 9.96345 37878 ft 462 kts 16°
2026-05-05 11:47 51.43326 9.99702 37889 ft 461 kts 16°
2026-05-05 11:48 51.52414 10.04762 37881 ft 460 kts 16°
2026-05-05 11:48 51.58466 10.08155 37885 ft 460 kts 16°
2026-05-05 11:49 51.64515 10.11541 37894 ft 460 kts 15°
2026-05-05 11:49 51.70558 10.14916 37891 ft 460 kts 16°
2026-05-05 11:50 51.76559 10.18295 37888 ft 459 kts 16°
2026-05-05 11:50 51.82595 10.21717 37889 ft 460 kts 16°
2026-05-05 11:51 51.88629 10.25139 37891 ft 459 kts 16°
2026-05-05 11:51 51.94657 10.28552 37906 ft 458 kts 16°
2026-05-05 11:52 52.00666 10.31974 37900 ft 458 kts 16°
2026-05-05 11:52 52.06671 10.35416 37888 ft 458 kts 15°
2026-05-05 11:53 52.12673 10.38852 37897 ft 457 kts 16°
2026-05-05 11:53 52.18675 10.42292 37900 ft 456 kts 16°
2026-05-05 11:54 52.24661 10.45737 37905 ft 456 kts 16°
2026-05-05 11:54 52.30642 10.49200 37912 ft 456 kts 16°
2026-05-05 11:55 52.36611 10.52661 37913 ft 455 kts 16°
2026-05-05 11:55 52.42541 10.56113 37901 ft 454 kts 16°
2026-05-05 11:56 52.48493 10.59579 37902 ft 454 kts 16°
2026-05-05 11:56 52.54445 10.63047 37920 ft 454 kts 16°
2026-05-05 11:57 52.60390 10.66529 37917 ft 453 kts 16°
2026-05-05 11:57 52.66324 10.70022 37911 ft 452 kts 16°
2026-05-05 11:58 52.72245 10.73526 37912 ft 452 kts 16°
2026-05-05 11:58 52.78167 10.77034 37930 ft 452 kts 16°
2026-05-05 11:59 52.84096 10.80543 37907 ft 453 kts 16°
2026-05-05 11:59 52.90029 10.84076 37903 ft 453 kts 16°
2026-05-05 12:00 52.95961 10.87614 37901 ft 453 kts 16°
2026-05-05 12:00 53.01899 10.91156 37904 ft 453 kts 16°
2026-05-05 12:01 53.07838 10.94705 37906 ft 454 kts 16°
2026-05-05 12:01 53.13779 10.98281 37908 ft 454 kts 16°
2026-05-05 12:02 53.19718 11.01876 37912 ft 454 kts 16°
2026-05-05 12:02 53.25666 11.05488 37928 ft 455 kts 16°
2026-05-05 12:03 53.31581 11.09080 37913 ft 455 kts 16°
2026-05-05 12:03 53.37581 11.12727 37910 ft 456 kts 16°
2026-05-05 12:04 53.43506 11.16348 37913 ft 457 kts 16°
2026-05-05 12:04 53.49481 11.19994 37939 ft 457 kts 16°
2026-05-05 12:05 53.55453 11.23651 37946 ft 457 kts 16°
2026-05-05 12:05 53.61417 11.27343 37948 ft 456 kts 17°
2026-05-05 12:06 53.67369 11.31030 37943 ft 456 kts 16°
2026-05-05 12:06 53.73322 11.34711 37965 ft 456 kts 17°
2026-05-05 12:07 53.79275 11.38416 37954 ft 456 kts 17°
2026-05-05 12:07 53.85225 11.42124 37956 ft 455 kts 17°
2026-05-05 12:08 53.91162 11.45838 37957 ft 455 kts 17°
2026-05-05 12:08 53.97106 11.49569 37982 ft 455 kts 17°
2026-05-05 12:09 54.02997 11.53280 37971 ft 454 kts 17°
2026-05-05 12:09 54.08923 11.57023 37964 ft 454 kts 17°
2026-05-05 12:10 54.14840 11.60761 37961 ft 454 kts 17°
2026-05-05 12:10 54.20759 11.64526 37972 ft 453 kts 17°
2026-05-05 12:11 54.26673 11.68290 37976 ft 453 kts 17°
2026-05-05 12:11 54.32584 11.72072 37962 ft 453 kts 17°
2026-05-05 12:12 54.38486 11.75861 37957 ft 453 kts 17°
2026-05-05 12:12 54.44394 11.79664 37981 ft 453 kts 17°
2026-05-05 12:13 54.50218 11.83861 37973 ft 455 kts 21°
2026-05-05 12:13 54.55939 11.88516 37967 ft 455 kts 22°
2026-05-05 12:14 54.61732 11.92805 37949 ft 450 kts 11°
2026-05-05 12:14 54.67810 11.94466 37985 ft 444 kts
2026-05-05 12:15 54.73959 11.95668 37979 ft 444 kts
2026-05-05 12:15 54.80102 11.96906 37974 ft 444 kts
2026-05-05 12:16 54.86245 11.98158 37968 ft 444 kts
2026-05-05 12:16 54.92391 11.99396 37967 ft 444 kts
2026-05-05 12:17 54.98528 12.00637 37988 ft 444 kts
2026-05-05 12:17 55.04670 12.01895 37983 ft 444 kts
2026-05-05 12:18 55.10808 12.03150 37983 ft 444 kts
2026-05-05 12:18 55.16942 12.04405 37981 ft 443 kts
2026-05-05 12:19 55.23065 12.05668 38000 ft 443 kts
2026-05-05 12:19 55.29186 12.06939 37990 ft 442 kts
2026-05-05 12:20 55.35300 12.08198 37989 ft 442 kts
2026-05-05 12:20 55.41366 12.09449 37981 ft 441 kts
2026-05-05 12:21 55.47461 12.10712 37977 ft 441 kts
2026-05-05 12:21 55.53556 12.11984 37979 ft 441 kts
2026-05-05 12:22 55.59650 12.13255 37958 ft 441 kts
2026-05-05 12:22 55.65751 12.14541 37956 ft 441 kts
2026-05-05 12:23 55.71849 12.15834 37984 ft 441 kts
2026-05-05 12:23 55.77948 12.17121 37979 ft 441 kts
2026-05-05 12:24 55.84009 12.18405 37977 ft 441 kts
2026-05-05 12:24 55.90104 12.19703 37985 ft 441 kts
2026-05-05 12:25 55.96202 12.21000 37982 ft 441 kts
2026-05-05 12:25 56.02305 12.22314 38009 ft 441 kts
2026-05-05 12:26 56.08450 12.23613 37736 ft 453 kts 359°
2026-05-05 12:26 56.11598 12.23694 37459 ft 451 kts 351°
2026-05-05 12:26 56.14693 12.23013 37187 ft 445 kts 345°
2026-05-05 12:27 56.17734 12.22155 36739 ft 440 kts 346°
2026-05-05 12:27 56.20746 12.21323 36265 ft 435 kts 346°
2026-05-05 12:27 56.23727 12.20515 35756 ft 431 kts 346°
2026-05-05 12:27 56.26681 12.19720 35274 ft 428 kts 345°
2026-05-05 12:28 56.29616 12.18924 34771 ft 425 kts 345°
2026-05-05 12:28 56.32524 12.18126 34293 ft 421 kts 345°
2026-05-05 12:28 56.35413 12.17329 33733 ft 419 kts 345°
2026-05-05 12:28 56.38281 12.16529 33221 ft 415 kts 345°
2026-05-05 12:29 56.41087 12.15744 32741 ft 411 kts 345°
2026-05-05 12:29 56.43933 12.14948 32234 ft 407 kts 345°
2026-05-05 12:29 56.46691 12.14180 31754 ft 403 kts 345°
2026-05-05 12:29 56.49450 12.13412 31280 ft 400 kts 345°
2026-05-05 12:30 56.52189 12.12644 30854 ft 397 kts 344°
2026-05-05 12:30 56.54910 12.11880 30360 ft 395 kts 344°
2026-05-05 12:30 56.57616 12.11125 29891 ft 392 kts 344°
2026-05-05 12:30 56.60295 12.10378 29429 ft 388 kts 344°
2026-05-05 12:31 56.62946 12.09634 29012 ft 383 kts 343°
2026-05-05 12:31 56.65570 12.08894 28586 ft 380 kts 343°
2026-05-05 12:31 56.68169 12.08161 28168 ft 376 kts 343°
2026-05-05 12:31 56.70741 12.07435 27754 ft 372 kts 343°
2026-05-05 12:32 56.73286 12.06717 27339 ft 368 kts 343°
2026-05-05 12:32 56.75805 12.06008 26917 ft 365 kts 343°
2026-05-05 12:32 56.78305 12.05306 26495 ft 362 kts 343°
2026-05-05 12:32 56.80777 12.04611 26090 ft 359 kts 343°
2026-05-05 12:33 56.83245 12.03910 25626 ft 357 kts 343°
2026-05-05 12:33 56.84860 12.03449 25337 ft 355 kts 343°
2026-05-05 12:33 56.87296 12.02752 24880 ft 353 kts 343°
2026-05-05 12:33 56.90495 12.01831 24284 ft 350 kts 343°
2026-05-05 12:34 56.92898 12.01142 23823 ft 349 kts 343°
2026-05-05 12:34 56.95296 12.00459 23330 ft 348 kts 343°
2026-05-05 12:34 56.97677 11.99784 22857 ft 345 kts 343°
2026-05-05 12:34 56.99246 11.99340 22562 ft 343 kts 343°
2026-05-05 12:35 57.01596 11.98671 22114 ft 340 kts 343°
2026-05-05 12:35 57.03927 11.98032 21690 ft 340 kts 346°
2026-05-05 12:35 57.06304 11.97890 21255 ft 342 kts 352°
2026-05-05 12:35 57.08677 11.97876 20857 ft 340 kts 352°
2026-05-05 12:36 57.11048 11.97864 20386 ft 340 kts 351°
2026-05-05 12:36 57.13408 11.97857 19961 ft 338 kts 352°
2026-05-05 12:36 57.15758 11.97856 19539 ft 337 kts 352°
2026-05-05 12:36 57.18102 11.97854 19117 ft 336 kts 351°
2026-05-05 12:37 57.20438 11.97847 18693 ft 336 kts 351°
2026-05-05 12:37 57.22773 11.97837 18270 ft 335 kts 351°
2026-05-05 12:37 57.25103 11.97827 17810 ft 334 kts 351°
2026-05-05 12:37 57.27419 11.97820 17394 ft 332 kts 351°
2026-05-05 12:38 57.29717 11.97811 16995 ft 329 kts 351°
2026-05-05 12:38 57.32001 11.97803 16594 ft 328 kts 351°
2026-05-05 12:38 57.34274 11.97794 16186 ft 326 kts 351°
2026-05-05 12:38 57.36538 11.97786 15823 ft 325 kts 351°
2026-05-05 12:39 57.38797 11.97774 15393 ft 324 kts 351°
2026-05-05 12:39 57.41050 11.97761 14997 ft 323 kts 351°
2026-05-05 12:39 57.43299 11.97752 14601 ft 323 kts 351°
2026-05-05 12:39 57.45542 11.97748 14204 ft 322 kts 351°
2026-05-05 12:40 57.47779 11.97743 13802 ft 321 kts 351°
2026-05-05 12:40 57.50014 11.97736 13367 ft 320 kts 351°
2026-05-05 12:40 57.52230 11.97726 12959 ft 317 kts 351°
2026-05-05 12:40 57.54434 11.97813 12550 ft 319 kts 358°
2026-05-05 12:41 57.56615 11.98807 12142 ft 328 kts 14°
2026-05-05 12:41 57.58676 12.00706 11707 ft 331 kts 21°
2026-05-05 12:41 57.60700 12.02698 11326 ft 327 kts 21°
2026-05-05 12:41 57.62696 12.04678 10924 ft 324 kts 21°
2026-05-05 12:42 57.64649 12.06613 10588 ft 319 kts 21°
2026-05-05 12:42 57.66605 12.08547 10159 ft 316 kts 21°
2026-05-05 12:42 57.68550 12.10465 9911 ft 307 kts 21°
2026-05-05 12:42 57.70403 12.12286 9741 ft 297 kts 21°
2026-05-05 12:43 57.72191 12.14040 9381 ft 292 kts 21°
2026-05-05 12:43 57.74012 12.15820 8957 ft 290 kts 21°
2026-05-05 12:43 57.75773 12.17543 8536 ft 288 kts 21°
2026-05-05 12:43 57.77544 12.19284 8095 ft 286 kts 21°
2026-05-05 12:44 57.79299 12.21015 7676 ft 284 kts 22°
2026-05-05 12:44 57.81042 12.22740 7257 ft 282 kts 22°
2026-05-05 12:44 57.82762 12.24441 6946 ft 275 kts 22°
2026-05-05 12:44 57.84409 12.26095 6814 ft 264 kts 25°
2026-05-05 12:45 57.85795 12.28317 6470 ft 264 kts 46°
2026-05-05 12:45 57.86680 12.31348 5965 ft 269 kts 69°
2026-05-05 12:45 57.86929 12.34820 5451 ft 271 kts 92°
2026-05-05 12:45 57.86411 12.38176 4972 ft 269 kts 121°
2026-05-05 12:46 57.85125 12.40645 4349 ft 267 kts 153°
2026-05-05 12:46 57.83396 12.41659 3933 ft 254 kts 177°
2026-05-05 12:46 57.81691 12.41591 3649 ft 239 kts 195°
2026-05-05 12:46 57.80150 12.40666 3346 ft 227 kts 211°
2026-05-05 12:47 57.78747 12.39378 3048 ft 223 kts 210°
2026-05-05 12:47 57.77372 12.38116 2736 ft 216 kts 210°
2026-05-05 12:47 57.76059 12.36913 2442 ft 205 kts 211°
2026-05-05 12:47 57.74819 12.35782 2202 ft 191 kts 212°
2026-05-05 12:48 57.73663 12.34724 1914 ft 178 kts 212°
2026-05-05 12:48 57.72630 12.33785 1690 ft 153 kts 213°
2026-05-05 12:48 57.71729 12.32964 1476 ft 136 kts 214°
2026-05-05 12:48 57.70905 12.32208 1279 ft 130 kts 214°
2026-05-05 12:49 57.70110 12.31480 1103 ft 125 kts 214°
2026-05-05 12:49 57.69325 12.30761 933 ft 126 kts 215°
2026-05-05 12:49 57.68535 12.30039 765 ft 127 kts 214°
2026-05-05 12:49 57.67752 12.29325 593 ft 125 kts 214°
2026-05-05 12:50 57.67021 12.28643 514 ft 100 kts 205°
2026-05-05 12:50 57.66543 12.28216 512 ft 55 kts 206°
2026-05-05 12:50 57.66251 12.27953 510 ft 32 kts 205°
2026-05-05 12:50 57.66112 12.28053 509 ft 19 kts 118°
2026-05-05 12:51 57.66123 12.28175 509 ft 10 kts 39°
2026-05-05 12:51 57.66186 12.28238 510 ft 11 kts 26°
2026-05-05 12:51 57.66260 12.28306 511 ft 14 kts 27°
2026-05-05 12:51 57.66348 12.28390 511 ft 15 kts 27°
2026-05-05 12:52 57.66444 12.28477 512 ft 16 kts 25°
2026-05-05 12:52 57.66548 12.28571 512 ft 17 kts 25°
2026-05-05 12:52 57.66661 12.28671 512 ft 19 kts 25°
2026-05-05 12:52 57.66781 12.28779 513 ft 20 kts 26°
2026-05-05 12:53 57.66817 12.28955 516 ft 14 kts 118°
2026-05-05 12:53 57.66769 12.29121 516 ft 14 kts 117°
2026-05-05 12:53 57.66735 12.29239 516 ft 5 kts 115°
2026-05-05 12:53 57.66728 12.29266 516 ft 1 kts 116°
2026-05-05 12:54 57.66728 12.29268 516 ft 0 kts 116°
2026-05-05 13:05 57.66729 12.29267 516 ft 0 kts 116°
2026-05-05 13:05 57.66728 12.29268 516 ft 0 kts 116°
2026-05-05 13:05 57.66729 12.29270 516 ft 0 kts 116°
2026-05-05 13:05 57.66728 12.29268 516 ft 0 kts 116°
2026-05-05 13:06 57.66728 12.29267 516 ft 0 kts 116°
2026-05-05 13:14 57.66727 12.29270 516 ft 0 kts 116°